OBJECT AF, 61764

Orbit data source: Space-Track

You're viewing an Uncataloged Satellite

Recently launched and/or uncataloged satellites may have evolving metadata. Metadata may include but not limited to: Owner, Maufacturer, Bus, Motor, and Mission.

OBJECT AF, 61764 is a satellite in SSO that was launched on Mon, 04 Nov 2024 UTC via a SOYUZ-2-1B launch vehicle from the Vostochny Cosmodrome (VOSTO). Unknown objects in Earth's orbit typically refer to objects detected orbiting the Earth but have not yet been identified or cataloged. These objects could be anything from previously untracked satellites, spent rocket stages, debris from satellite collisions, or even natural meteoroids temporarily captured by Earth's gravity.

Loading next visibility...
OBJECT AF details
Identifier
61764, 2024-199AF
Orbit
SSO
Last TLE update10 hours ago
Origin
Flag of TBDS2086/SITRO (TBD)
ManufacturerSputniks
MissionOperational spacecraft
Bus & MotorCUBESAT 3U, Unknown motor
Mass3 kg wet, 3 kg dry
Launch date (UTC)
2024-11-04 (2 months ago)
Launch vehicle
SOYUZ-2-1B
Launch site
Vostochny Cosmodrome (VOSTO)
Object typeUnknown
Shape & HBRUnknown
Radar Cross SectionSmall (<0.1 m²)

Expand to show TLE details & history

TLE from 10 hours ago
0 OBJECT AF
1 61764U 24199AF  24361.58856402  .00028975  00000-0  10929-2 0  9997
2 61764  97.3785 225.7326 0012895  59.7054 300.5459 15.26927414 51718
Epoch: 2024-12-26T14:07Z
Definitive object data (Epoch: 2024-12-26T14:07:31.931Z)
Latitude-0.00002°
Longitude-81.71624°
Altitude483.614 km
Speed7.626 km/s
True Right ascension15h 02m 55s
True Declination0° 00' 00"
Sunlit
Object was in daylight at TLE epoch
Visualization TLE readout
Latitude32.60005°
Longitude-86.04586°
Altitude481.279 km
Speed7.632 km/s
Apparent Right ascension13h 05m 30s
Apparent Declination-2° 23' 02"
Sunlit
Object is in daylight
Visualization observer readout
Local Sidereal Time23:05:39
Azimuth316.372° NNW
Elevation-43.676°
Doppler factor1
Orbital elements
Apogee altitude490.805 km
Perigee altitude473.113 km
Semi-major axis6,860.096 km
Eccentricity0.0012895
Inclination97.3785°
RAAN225.7326°
Arg. of periapsis59.7054°
True anomaly300.41854°
Mean anomaly300.5459°
Eccentric anomaly300.48223°
Mean motion3.81986 °/min
BSTAR0.0010929
Orbital period94.24 mins
Loading maneuver chart data...
Loading historical data...
Loading historical data...
Loading historical data...
Loading historical data...
Loading historical data...
Loading historical data...
Loading historical data...

OBJECT AF Visibility forecast

Observer location: undefined°, undefined

Span
Click to sort rows by Start time (UTC) header in descending order
Start Az.
Max El. time (UTC)
Max El. Az.
Max El.
End time (UTC)
End Az.
4 mins2024-12-27 03:17:17.624Z53.169° ENE2024-12-27 03:19:17.624Z94.043° ESE19.509°2024-12-27 03:21:17.624Z135.795° SSE
4 mins2024-12-27 04:51:17.624Z321.774° NNW2024-12-27 04:52:17.624Z299.936° NW19.612°2024-12-27 04:55:17.624Z240.821° WSW
4 mins2024-12-27 15:26:17.624Z189.791° SSW2024-12-27 15:27:17.624Z218.281° SW38.869°2024-12-27 15:30:17.624Z337.263° NNW
|